Location: Armidale
(30.5016°S, 151.6662°E)
Time: 04:45:35
(UTC+10:00)

Envisat - Visible Passes

Search period start: 04 August 2020 00:00
Search period end: 14 August 2020 00:00
Orbit: 764 x 766 km, 98.1° (Epoch: 03 August)

Date Brightness Start Highest point End Pass type
(mag) Time Alt. Az. Time Alt. Az. Time Alt. Az.
04 Aug 5.4 04:24:03 10° ENE 04:27:47 21° ESE 04:31:33 10° SSE visible
04 Aug 3.6 06:01:54 10° NNW 06:06:30 35° W 06:11:10 10° SSW visible
04 Aug 3.5 18:16:06 10° S 18:21:11 63° WSW 18:26:12 10° NNW visible
05 Aug 3.0 05:24:35 10° NNE 05:29:40 87° W 05:34:50 10° SSW visible
05 Aug 3.2 17:39:24 10° SSE 17:44:25 52° E 17:49:22 10° N visible
05 Aug 5.8 19:20:16 10° SW 19:22:55 14° WSW 19:25:34 10° W visible
06 Aug 4.4 04:48:21 10° NE 04:53:01 38° ESE 04:57:45 10° S visible
06 Aug 4.7 18:41:54 10° S 18:46:29 33° WSW 18:51:01 10° NW visible
07 Aug 5.7 04:13:29 10° ENE 04:16:34 16° ESE 04:19:39 10° SSE visible
07 Aug 3.3 05:50:16 10° N 05:55:08 45° W 06:00:03 10° SSW visible
07 Aug 3.1 18:04:42 10° S 18:09:52 83° WSW 18:14:57 10° NNW visible
08 Aug 3.2 05:13:17 10° NNE 05:18:21 72° ESE 05:23:29 10° S visible
08 Aug 5.6 19:08:14 10° SSW 19:11:42 19° WSW 19:15:09 10° WNW visible
09 Aug 4.9 04:37:23 10° NE 04:41:45 29° ESE 04:46:09 10° SSE visible
09 Aug 4.2 18:30:22 10° S 18:35:12 43° WSW 18:40:00 10° NW visible
10 Aug 5.9 04:03:17 10° E 04:05:21 12° ESE 04:07:25 10° SE visible
10 Aug 3.0 05:38:45 10° N 05:43:46 60° W 05:48:51 10° SSW visible
10 Aug 3.0 17:53:23 10° SSE 17:58:32 76° ENE 18:03:36 10° N visible
11 Aug 3.7 05:02:05 10° NNE 05:07:02 55° ESE 05:12:03 10° S visible
11 Aug 5.3 18:56:26 10° SSW 19:00:27 24° WSW 19:04:28 10° WNW visible
12 Aug 5.3 04:26:34 10° ENE 04:30:30 23° ESE 04:34:28 10° SSE visible
12 Aug 3.8 06:04:47 10° NNW 06:09:16 31° W 06:13:49 10° SW visible
12 Aug 3.7 18:18:53 10° S 18:23:55 57° WSW 18:28:53 10° NNW visible
13 Aug 2.9 05:27:20 10° N 05:32:25 79° WNW 05:37:35 10° SSW visible
13 Aug 5.9 19:23:22 10° SW 19:25:37 13° WSW 19:27:51 10° W visible
